| time (UTC) | temp C | wind direction | speed KPH | gust KPH | rain 1hr cm | rain 24hr cm | rain mn cm | humidity % | barometer mb |
| 20260504110512 | 8 | 245 | 3.2 | 16.1 | 0.00 | 0.03 | 0.03 | 82 | 1007.4 |
| 20260504100513 | 7 | 232 | 1.6 | 11.3 | 0.00 | 0.03 | 0.03 | 84 | 1007.6 |
| 20260504081547 | 7 | 146 | 0.0 | 11.3 | 0.03 | 0.03 | 0.03 | 86 | 1008.3 |
| 20260504081013 | 7 | 219 | 3.2 | 11.3 | 0.03 | 0.03 | 0.03 | 86 | 1008.4 |
| 20260504080515 | 7 | 146 | 0.0 | 3.2 | 0.03 | 0.03 | 0.03 | 86 | 1008.3 |
| 20260504050519 | 6 | 130 | 1.6 | 6.4 | 0.00 | 0.00 | 0.00 | 72 | 1008.5 |
| 20260504045518 | 6 | 129 | 0.0 | 3.2 | 0.00 | 0.00 | 0.00 | 71 | 1008.5 |
| 20260504045009 | 6 | 129 | 0.0 | 3.2 | 0.00 | 0.00 | 0.00 | 69 | 1008.5 |
| 20260504044557 | 6 | 129 | 0.0 | 3.2 | 0.00 | 0.00 | 0.00 | 68 | 1008.8 |
| 20260504044013 | 6 | 129 | 0.0 | 4.8 | 0.00 | 0.00 | 0.00 | 68 | 1008.7 |
| 20260504043511 | 6 | 128 | 0.0 | 4.8 | 0.00 | 0.00 | 0.00 | 67 | 1008.7 |
| 20260504043030 | 6 | 128 | 1.6 | 4.8 | 0.00 | 0.00 | 0.00 | 67 | 1008.7 |
| 20260504042511 | 6 | 128 | 0.0 | 4.8 | 0.00 | 0.00 | 0.00 | 68 | 1008.6 |
| 20260504042010 | 6 | 128 | 0.0 | 9.7 | 0.00 | 0.00 | 0.00 | 69 | 1008.6 |
| 20260504041530 | 6 | 125 | 3.2 | 8.0 | 0.00 | 0.00 | 0.00 | 69 | 1008.7 |
| 20260504041008 | 6 | 148 | 1.6 | 8.0 | 0.00 | 0.00 | 0.00 | 70 | 1008.5 |
| 20260504040513 | 6 | 152 | 1.6 | 8.0 | 0.00 | 0.00 | 0.00 | 70 | 1008.6 |
| 20260504040028 | 6 | 137 | 0.0 | 6.4 | 0.00 | 0.00 | 0.00 | 68 | 1008.7 |
| 20260504035509 | 6 | 137 | 0.0 | 6.4 | 0.00 | 0.00 | 0.00 | 68 | 1008.6 |
| 20260504035011 | 6 | 137 | 0.0 | 3.2 | 0.00 | 0.00 | 0.00 | 66 | 1008.7 |
| 20260504034528 | 6 | 137 | 0.0 | 3.2 | 0.00 | 0.00 | 0.00 | 66 | 1008.8 |
| 20260504034007 | 6 | 135 | 0.0 | 6.4 | 0.00 | 0.00 | 0.00 | 65 | 1008.8 |
| 20260504033512 | 6 | 135 | 1.6 | 6.4 | 0.00 | 0.00 | 0.00 | 66 | 1008.8 |
| 20260504033027 | 6 | 123 | 0.0 | 3.2 | 0.00 | 0.00 | 0.00 | 68 | 1008.7 |
| 20260504032510 | 6 | 123 | 0.0 | 3.2 | 0.00 | 0.00 | 0.00 | 68 | 1008.8 |
| 20260504032015 | 6 | 123 | 0.0 | 6.4 | 0.00 | 0.00 | 0.00 | 67 | 1008.8 |
| 20260504031530 | 6 | 123 | 1.6 | 6.4 | 0.00 | 0.00 | 0.00 | 68 | 1008.9 |
| 20260504031010 | 6 | 122 | 0.0 | 3.2 | 0.00 | 0.00 | 0.00 | 69 | 1009.0 |
| 20260504030510 | 6 | 122 | 1.6 | 4.8 | 0.00 | 0.00 | 0.00 | 70 | 1008.8 |
| 20260504030039 | 6 | 121 | 1.6 | 4.8 | 0.00 | 0.00 | 0.00 | 70 | 1008.8 |
| 20260504025510 | 6 | 121 | 0.0 | 3.2 | 0.00 | 0.00 | 0.00 | 71 | 1008.9 |
| 20260504025009 | 6 | 121 | 1.6 | 6.4 | 0.00 | 0.00 | 0.00 | 70 | 1009.1 |
| 20260504024530 | 6 | 124 | 3.2 | 6.4 | 0.00 | 0.00 | 0.00 | 70 | 1008.9 |
| 20260504024007 | 7 | 141 | 1.6 | 11.3 | 0.00 | 0.00 | 0.00 | 70 | 1008.9 |
| 20260504023510 | 7 | 175 | 3.2 | 11.3 | 0.00 | 0.00 | 0.00 | 69 | 1008.7 |
| 20260504023031 | 7 | 212 | 1.6 | 9.7 | 0.00 | 0.00 | 0.00 | 68 | 1008.9 |
| 20260504022502 | 8 | 219 | 4.8 | 11.3 | 0.00 | 0.00 | 0.00 | 63 | 1008.9 |
| 20260504022011 | 8 | 203 | 6.4 | 11.3 | 0.00 | 0.00 | 0.00 | 62 | 1008.9 |
| 20260504021530 | 8 | 209 | 4.8 | 11.3 | 0.00 | 0.00 | 0.00 | 54 | 1009.0 |
| 20260504021012 | 8 | 218 | 4.8 | 12.9 | 0.00 | 0.00 | 0.00 | 57 | 1009.0 |
| 20260504020510 | 8 | 196 | 4.8 | 11.3 | 0.00 | 0.00 | 0.00 | 62 | 1009.2 |
| 20260504020027 | 8 | 225 | 3.2 | 12.9 | 0.00 | 0.00 | 0.00 | 51 | 1009.1 |
| 20260504015510 | 8 | 256 | 6.4 | 12.9 | 0.00 | 0.00 | 0.00 | 51 | 1009.0 |
| 20260504015007 | 8 | 244 | 6.4 | 11.3 | 0.00 | 0.00 | 0.00 | 51 | 1009.0 |
| 20260504014530 | 8 | 238 | 6.4 | 16.1 | 0.00 | 0.00 | 0.00 | 51 | 1009.1 |
| 20260504014011 | 8 | 224 | 6.4 | 16.1 | 0.00 | 0.00 | 0.00 | 51 | 1009.1 |
| 20260504013508 | 8 | 225 | 6.4 | 12.9 | 0.00 | 0.00 | 0.00 | 51 | 1009.0 |
| 20260504013030 | 8 | 240 | 6.4 | 12.9 | 0.00 | 0.00 | 0.00 | 53 | 1009.2 |
| 20260504012512 | 8 | 247 | 6.4 | 11.3 | 0.00 | 0.00 | 0.00 | 53 | 1009.3 |
| 20260504012017 | 8 | 258 | 4.8 | 9.7 | 0.00 | 0.00 | 0.00 | 54 | 1009.3 |
| 20260504011528 | 8 | 247 | 3.2 | 11.3 | 0.00 | 0.00 | 0.00 | 53 | 1009.2 |
| 20260504011008 | 7 | 238 | 6.4 | 16.1 | 0.00 | 0.00 | 0.00 | 56 | 1009.0 |
| 20260504010510 | 7 | 242 | 6.4 | 16.1 | 0.00 | 0.00 | 0.00 | 57 | 1009.0 |
| 20260504010030 | 7 | 229 | 4.8 | 6.4 | 0.00 | 0.00 | 0.00 | 59 | 1009.0 |
| 20260504005511 | 6 | 244 | 3.2 | 6.4 | 0.00 | 0.03 | 0.00 | 60 | 1009.0 |
| 20260504005011 | 6 | 240 | 3.2 | 6.4 | 0.00 | 0.03 | 0.00 | 62 | 1009.0 |
| 20260504004503 | 6 | 234 | 3.2 | 6.4 | 0.00 | 0.03 | 0.00 | 64 | 1008.8 |
| 20260504004011 | 6 | 228 | 1.6 | 6.4 | 0.00 | 0.03 | 0.00 | 66 | 1008.8 |
| 20260504003509 | 6 | 214 | 3.2 | 6.4 | 0.00 | 0.03 | 0.00 | 66 | 1008.8 |
| 20260504003029 | 6 | 138 | 0.0 | 3.2 | 0.00 | 0.03 | 0.00 | 67 | 1008.8 |
| 20260504002507 | 6 | 137 | 0.0 | 3.2 | 0.00 | 0.03 | 0.00 | 67 | 1008.9 |
| 20260504002007 | 6 | 137 | 0.0 | 3.2 | 0.00 | 0.03 | 0.00 | 67 | 1008.9 |
| 20260504001530 | 7 | 137 | 0.0 | 3.2 | 0.00 | 0.03 | 0.00 | 66 | 1008.7 |
| 20260504001003 | 7 | 137 | 0.0 | 3.2 | 0.00 | 0.03 | 0.00 | 65 | 1008.6 |
| 20260504000502 | 7 | 137 | 0.0 | 0.0 | 0.00 | 0.03 | 0.00 | 64 | 1008.8 |
| 20260504000030 | 8 | 137 | 0.0 | 3.2 | 0.00 | 0.03 | 0.00 | 63 | 1008.8 |
| 20260503235507 | 8 | 137 | 0.0 | 3.2 | 0.00 | 0.03 | 0.00 | 63 | 1008.8 |
| 20260503235011 | 8 | 137 | 1.6 | 3.2 | 0.00 | 0.03 | 0.00 | 62 | 1008.6 |
| 20260503234542 | 8 | 137 | 0.0 | 1.6 | 0.00 | 0.03 | 0.00 | 63 | 1008.7 |
| 20260503234008 | 8 | 137 | 0.0 | 0.0 | 0.00 | 0.03 | 0.00 | 62 | 1008.8 |
| 20260503233513 | 9 | 137 | 0.0 | 0.0 | 0.00 | 0.03 | 0.00 | 62 | 1008.7 |
| 20260503233003 | 10 | 137 | 0.0 | 0.0 | 0.00 | 0.03 | 0.00 | 59 | 1008.7 |
| 20260503232511 | 10 | 137 | 0.0 | 0.0 | 0.00 | 0.03 | 0.00 | 59 | 1008.6 |
| 20260503232011 | 10 | 137 | 0.0 | 0.0 | 0.00 | 0.03 | 0.00 | 57 | 1008.5 |
| 20260503231529 | 10 | 137 | 0.0 | 3.2 | 0.00 | 0.03 | 0.00 | 58 | 1008.5 |
| 20260503231015 | 10 | 137 | 0.0 | 6.4 | 0.00 | 0.03 | 0.00 | 54 | 1008.6 |
| 20260503230516 | 10 | 140 | 1.6 | 6.4 | 0.00 | 0.03 | 0.00 | 54 | 1008.5 |
| 20260503230037 | 10 | 159 | 1.6 | 8.0 | 0.00 | 0.03 | 0.00 | 54 | 1008.7 |
| 20260503225516 | 10 | 213 | 3.2 | 8.0 | 0.00 | 0.03 | 0.00 | 54 | 1008.6 |
| 20260503225012 | 10 | 188 | 0.0 | 4.8 | 0.00 | 0.03 | 0.00 | 54 | 1008.6 |
| 20260503224528 | 10 | 188 | 0.0 | 4.8 | 0.00 | 0.03 | 0.00 | 54 | 1008.6 |
| 20260503224008 | 10 | 139 | 0.0 | 3.2 | 0.00 | 0.03 | 0.00 | 57 | 1008.6 |
| 20260503223514 | 10 | 139 | 0.0 | 3.2 | 0.00 | 0.03 | 0.00 | 55 | 1008.7 |
| 20260503223029 | 10 | 139 | 0.0 | 3.2 | 0.00 | 0.03 | 0.00 | 53 | 1008.7 |
| 20260503222508 | 10 | 140 | 0.0 | 3.2 | 0.00 | 0.03 | 0.00 | 52 | 1008.6 |
| 20260503222008 | 10 | 140 | 0.0 | 3.2 | 0.00 | 0.03 | 0.00 | 52 | 1008.6 |
| 20260503221528 | 10 | 140 | 0.0 | 3.2 | 0.00 | 0.03 | 0.00 | 53 | 1008.6 |
| 20260503221015 | 10 | 140 | 0.0 | 3.2 | 0.00 | 0.03 | 0.00 | 52 | 1008.8 |
| 20260503220508 | 10 | 140 | 0.0 | 0.0 | 0.00 | 0.03 | 0.00 | 52 | 1008.7 |
| 20260503220042 | 10 | 140 | 0.0 | 0.0 | 0.00 | 0.03 | 0.00 | 54 | 1008.7 |
| 20260503215509 | 10 | 140 | 0.0 | 0.0 | 0.00 | 0.03 | 0.00 | 53 | 1008.7 |
| 20260503215013 | 10 | 140 | 0.0 | 3.2 | 0.00 | 0.03 | 0.00 | 51 | 1008.7 |
| 20260503214503 | 10 | 140 | 0.0 | 3.2 | 0.00 | 0.03 | 0.00 | 54 | 1008.6 |
| 20260503214009 | 10 | 140 | 0.0 | 3.2 | 0.00 | 0.03 | 0.00 | 52 | 1008.5 |
| 20260503213509 | 10 | 140 | 0.0 | 3.2 | 0.00 | 0.03 | 0.00 | 51 | 1008.5 |
| 20260503213015 | 10 | 140 | 0.0 | 3.2 | 0.00 | 0.03 | 0.00 | 53 | 1008.6 |
| 20260503212509 | 10 | 140 | 1.6 | 3.2 | 0.00 | 0.03 | 0.00 | 50 | 1008.6 |
| 20260503212008 | 10 | 139 | 0.0 | 3.2 | 0.00 | 0.03 | 0.00 | 49 | 1008.5 |
| 20260503211528 | 10 | 139 | 1.6 | 3.2 | 0.00 | 0.03 | 0.00 | 49 | 1008.4 |
| 20260503211008 | 10 | 72 | 0.0 | 3.2 | 0.00 | 0.03 | 0.00 | 49 | 1008.4 |
| 20260503210508 | 10 | 72 | 0.0 | 3.2 | 0.00 | 0.03 | 0.00 | 49 | 1008.5 |
| 20260503210030 | 10 | 72 | 0.0 | 3.2 | 0.00 | 0.03 | 0.00 | 49 | 1008.5 |
| 20260503205512 | 10 | 72 | 0.0 | 3.2 | 0.00 | 0.10 | 0.00 | 49 | 1008.4 |
| 20260503205009 | 10 | 60 | 0.0 | 3.2 | 0.00 | 0.10 | 0.00 | 49 | 1008.4 |
| 20260503204530 | 10 | 60 | 0.0 | 3.2 | 0.00 | 0.10 | 0.00 | 51 | 1008.4 |
| 20260503204014 | 10 | 60 | 0.0 | 3.2 | 0.00 | 0.10 | 0.00 | 54 | 1008.5 |
| 20260503203509 | 10 | 56 | 1.6 | 4.8 | 0.00 | 0.10 | 0.00 | 54 | 1008.5 |
| 20260503203031 | 10 | 32 | 1.6 | 6.4 | 0.00 | 0.10 | 0.00 | 54 | 1008.4 |
| 20260503202511 | 10 | 47 | 3.2 | 6.4 | 0.00 | 0.10 | 0.00 | 56 | 1008.5 |
| 20260503202004 | 10 | 103 | 0.0 | 6.4 | 0.00 | 0.10 | 0.00 | 56 | 1008.5 |
| 20260503201530 | 10 | 103 | 1.6 | 6.4 | 0.00 | 0.10 | 0.00 | 56 | 1008.5 |
| 20260503201012 | 10 | 103 | 1.6 | 6.4 | 0.00 | 0.10 | 0.00 | 56 | 1008.7 |
| 20260503200510 | 10 | 59 | 0.0 | 8.0 | 0.00 | 0.10 | 0.00 | 56 | 1008.8 |
| 20260503200028 | 10 | 61 | 4.8 | 8.0 | 0.00 | 0.10 | 0.00 | 55 | 1008.8 |
| 20260503195510 | 10 | 59 | 3.2 | 8.0 | 0.00 | 0.10 | 0.00 | 56 | 1008.7 |
| 20260503195009 | 10 | 42 | 3.2 | 8.0 | 0.00 | 0.10 | 0.00 | 54 | 1008.8 |
| 20260503194531 | 10 | 42 | 3.2 | 6.4 | 0.00 | 0.10 | 0.00 | 54 | 1008.8 |
| 20260503194011 | 10 | 36 | 0.0 | 3.2 | 0.00 | 0.10 | 0.00 | 53 | 1009.0 |
| 20260503193514 | 10 | 34 | 1.6 | 6.4 | 0.00 | 0.10 | 0.00 | 53 | 1009.1 |
| 20260503193034 | 10 | 40 | 3.2 | 6.4 | 0.00 | 0.10 | 0.00 | 53 | 1009.2 |
| 20260503192510 | 10 | 28 | 1.6 | 6.4 | 0.00 | 0.10 | 0.00 | 54 | 1009.3 |
| 20260503192009 | 10 | 89 | 1.6 | 6.4 | 0.00 | 0.10 | 0.00 | 59 | 1009.4 |
| 20260503191532 | 9 | 48 | 0.0 | 9.7 | 0.00 | 0.10 | 0.00 | 59 | 1009.5 |
| 20260503191010 | 9 | 67 | 1.6 | 9.7 | 0.00 | 0.10 | 0.00 | 56 | 1009.5 |
| 20260503190511 | 10 | 19 | 4.8 | 8.0 | 0.00 | 0.10 | 0.00 | 57 | 1009.4 |
| 20260503190030 | 10 | 16 | 3.2 | 6.4 | 0.00 | 0.10 | 0.00 | 56 | 1009.5 |
| 20260503185511 | 10 | 360 | 3.2 | 6.4 | 0.00 | 0.10 | 0.00 | 56 | 1009.5 |
| 20260503185011 | 9 | 72 | 1.6 | 6.4 | 0.00 | 0.10 | 0.00 | 56 | 1009.6 |
| 20260503184530 | 9 | 30 | 1.6 | 4.8 | 0.00 | 0.10 | 0.00 | 56 | 1009.6 |
| 20260503184012 | 9 | 28 | 1.6 | 6.4 | 0.00 | 0.10 | 0.00 | 56 | 1009.7 |
| 20260503183510 | 9 | 38 | 3.2 | 6.4 | 0.00 | 0.10 | 0.00 | 56 | 1009.7 |
| 20260503183044 | 10 | 38 | 1.6 | 6.4 | 0.00 | 0.10 | 0.00 | 57 | 1009.7 |
| 20260503182511 | 10 | 51 | 3.2 | 9.7 | 0.00 | 0.10 | 0.00 | 58 | 1009.8 |
| 20260503182011 | 9 | 21 | 3.2 | 9.7 | 0.00 | 0.10 | 0.00 | 57 | 1009.8 |
| 20260503181531 | 9 | 36 | 3.2 | 6.4 | 0.00 | 0.10 | 0.00 | 57 | 1010.0 |
| 20260503181012 | 9 | 58 | 1.6 | 6.4 | 0.00 | 0.10 | 0.00 | 59 | 1009.9 |
| 20260503180510 | 9 | 85 | 0.0 | 6.4 | 0.00 | 0.10 | 0.00 | 58 | 1009.9 |
| 20260503180030 | 9 | 345 | 1.6 | 4.8 | 0.00 | 0.10 | 0.00 | 58 | 1009.9 |
| 20260503175509 | 9 | 22 | 0.0 | 4.8 | 0.00 | 0.10 | 0.00 | 58 | 1009.9 |
| 20260503175013 | 9 | 17 | 1.6 | 4.8 | 0.00 | 0.10 | 0.00 | 60 | 1009.8 |
| 20260503174532 | 9 | 117 | 0.0 | 4.8 | 0.00 | 0.10 | 0.00 | 60 | 1009.9 |
| 20260503174011 | 9 | 117 | 0.0 | 4.8 | 0.00 | 0.10 | 0.00 | 58 | 1009.9 |
| 20260503173512 | 9 | 122 | 1.6 | 8.0 | 0.00 | 0.10 | 0.00 | 59 | 1010.0 |
| 20260503173030 | 9 | 9 | 3.2 | 8.0 | 0.00 | 0.10 | 0.00 | 60 | 1009.9 |
| 20260503172510 | 9 | 62 | 0.0 | 4.8 | 0.00 | 0.10 | 0.00 | 60 | 1010.1 |
| 20260503172011 | 8 | 65 | 1.6 | 4.8 | 0.00 | 0.10 | 0.00 | 60 | 1010.1 |
| 20260503171529 | 8 | 331 | 1.6 | 8.0 | 0.00 | 0.10 | 0.00 | 63 | 1010.1 |
| 20260503171010 | 8 | 13 | 3.2 | 8.0 | 0.00 | 0.10 | 0.00 | 65 | 1010.0 |
| 20260503170511 | 8 | 333 | 3.2 | 6.4 | 0.00 | 0.10 | 0.00 | 64 | 1010.0 |
| 20260503151011 | 7 | 36 | 6.4 | 14.5 | 0.00 | 0.10 | 0.00 | 65 | 1011.0 |
| 20260503150513 | 8 | 80 | 4.8 | 11.3 | 0.00 | 0.10 | 0.00 | 66 | 1011.0 |
| 20260503131013 | 7 | 66 | 1.6 | 12.9 | 0.00 | 0.10 | 0.00 | 73 | 1011.6 |
| 20260503130512 | 7 | 36 | 1.6 | 6.4 | 0.00 | 0.10 | 0.00 | 74 | 1011.7 |